This demonstration page uses our WeatherBlox Daily Observations layout. Learn more.

Left ArrowRight Arrow

Hourly Observations for June 24, 2020

Temp ( °F °C ) Dew Point ( °F °C ) Humidity (%) Winds ( mph kmh ) Pressure ( in mb ) Visibility ( mi km ) Precip ( " mm )
12:53 am 00:53 Clear 59 15 54 12.2 83 83 N N/A 29.83 1010 10 16 N/A
1:53 am 01:53 Clear 59 15 53 11.7 81 81 SSW 5 7 29.80 1009 10 16 N/A
2:53 am 02:53 Clear 60 15.6 53 11.7 78 78 SSW 3 6 29.80 1009 10 16 N/A
3:53 am 03:53 Partly Cloudy 60 15.6 54 12.2 80 80 N N/A 29.79 1009 10 16 N/A
4:53 am 04:53 Mostly Clear 60 15.6 54 12.2 80 80 SW 5 7 29.79 1009 10 16 N/A
5:53 am 05:53 Sunny 59 15 54 12.2 83 83 N N/A 29.78 1009 10 16 N/A
6:53 am 06:53 Mostly Sunny 66 18.9 56 13.3 70 70 W 8 13 29.79 1009 10 16 N/A
7:53 am 07:53 Sunny 71 21.7 57 13.9 61 61 SW 10 17 29.79 1009 10 16 N/A
8:53 am 08:53 Sunny 74 23.3 58 14.4 57 57 SSW 10 17 29.79 1009 10 16 N/A
9:53 am 09:53 Sunny 78 25.6 55 12.8 45 45 VRB 3 6 29.79 1009 10 16 N/A
10:53 am 10:53 Sunny 80 26.7 51 10.6 37 37 VRB 5 7 29.78 1009 10 16 N/A
11:53 am 11:53 Sunny 85 29.4 50 10 30 30 W 8 13 29.78 1008 10 16 N/A
12:53 pm 12:53 Sunny 86 30 50 10 29 29 VRB 7 11 29.77 1008 10 16 N/A
1:53 pm 13:53 Sunny 88 31.1 51 10.6 28 28 W 9 15 29.76 1008 10 16 N/A
2:53 pm 14:53 Mostly Sunny 90 32.2 46 7.8 22 22 W 9 15 29.74 1007 10 16 N/A
3:53 pm 15:53 Sunny 91 32.8 46 7.8 21 21 NW 12 19 29.72 1006 10 16 N/A
4:53 pm 16:53 Sunny 89 31.7 46 7.8 23 23 N 12 19 29.71 1006 10 16 N/A
5:53 pm 17:53 Mostly Cloudy 85 29.4 45 7.2 25 25 N 15 24 29.72 1007 10 16 N/A
6:53 pm 18:53 Mostly Cloudy 75 23.9 54 12.2 48 48 N 14 22 29.74 1007 10 16 N/A
7:53 pm 19:53 Sunny 76 24.4 52 11.1 43 43 NE 9 15 29.70 1006 10 16 N/A
8:53 pm 20:53 Mostly Cloudy 73 22.8 54 12.2 51 51 NW 16 26 29.75 1008 10 16 N/A
9:53 pm 21:53 Cloudy with Light Rain 65 18.3 57 13.9 76 76 S 15 24 29.80 1009 10 16 0.01 0.25
10:00 pm 22:00 Cloudy with Light Rain 64 17.8 57 13.9 78 78 S 3 6 29.78 1009 10 16 0.00 0.00
10:53 pm 22:53 Cloudy 64 17.8 55 12.8 73 73 S 3 6 29.81 1010 10 16 0.01 0.25
11:53 pm 23:53 Partly Cloudy 63 17.2 60 15.6 90 90 WSW 13 20 29.82 1010 10 16 0.01 0.25

Powered by AerisWeather